Jefferson, NC

12:23 PM EDT on September 24, 2017 (GMT -0400)
Ashe County

Weather History for KGEV - April, 2014

Change the Weather History Date:

Tuesday, April 1, 2014

  Actual Average Record
Temperature  
Mean Temperature 60 °F -  
Max Temperature 71 °F 61 °F 84 °F (1974)
Min Temperature 50 °F 34 °F 20 °F (1987)
Degree Days  
Heating Degree Days 4    
Growing Degree Days 10 (Base 50)    
Moisture  
Dew Point 22 °F    
Average Humidity 23    
Maximum Humidity 37    
Minimum Humidity 15    
Precipitation  
Precipitation 0.00 in - - ()
Sea Level Pressure  
Sea Level Pressure 30.12 in    
Wind  
Wind Speed 5 mph (West)    
Max Wind Speed 17 mph    
Max Gust Speed 25 mph    
Visibility 10 miles    
Events Rain    
Averages and records for this station are not official NWS values.
T = Trace of Precipitation, MM = Missing Value Source: NWS Daily Summary

Daily Weather History Graph

Daily Weather History Graph

Search for Another Location

Airport or City:

Trip Planner

Search our weather history database for the weather conditions in past years. The results will help you decide how hot, cold, wet, or windy it might be!

Date:

Astronomy

Apr. 01, 2014 Rise Set
Actual Time 7:11 AM EDT 7:47 PM EDT
Civil Twilight 6:45 AM EDT 8:13 PM EDT
Nautical Twilight 6:15 AM EDT 8:44 PM EDT
Astronomical Twilight 5:44 AM EDT 9:15 PM EDT
Moon 8:16 AM EDT (4/1) 10:04 PM EDT (4/1)
Length of Visible Light 13h 28m
Length of Day
12h 36m
Waxing Crescent, 4% of the Moon is Illuminated
Apr 1
Waxing Crescent
Apr 7
First Quarter
Apr 15
Full
Apr 22
Last Quarter
Apr 29
New

Hourly Weather History & Observations

Time (EDT) Temp. Dew Point Humidity Pressure Visibility Wind Dir Wind Speed Gust Speed Precip Events Conditions
12:15 AM 55.6 °F 16.0 °F 21% 30.14 in 10.0 mi WSW 3.5 mph - N/A   Clear
12:35 AM 56.1 °F 15.4 °F 20% 30.13 in 10.0 mi Calm Calm - N/A   Clear
12:55 AM 54.3 °F 16.2 °F 22% 30.13 in 10.0 mi Calm Calm - N/A   Clear
1:15 AM 52.7 °F 18.3 °F 26% 30.12 in 10.0 mi Calm Calm - N/A   Clear
1:35 AM 53.6 °F 16.7 °F 23% 30.12 in 10.0 mi Calm Calm - N/A   Clear
1:55 AM 54.5 °F 16.2 °F 22% 30.12 in 10.0 mi Calm Calm - N/A   Clear
2:15 AM 53.1 °F 16.5 °F 24% 30.12 in 10.0 mi Calm Calm - N/A   Clear
2:35 AM 53.4 °F 15.8 °F 23% 30.12 in 10.0 mi Calm Calm - N/A   Clear
2:55 AM 54.1 °F 14.9 °F 21% 30.11 in 10.0 mi Calm Calm - N/A   Clear
3:15 AM 54.1 °F 14.7 °F 21% 30.11 in 10.0 mi WSW 3.5 mph - N/A   Clear
3:35 AM 53.8 °F 15.6 °F 22% 30.11 in 10.0 mi Calm Calm - N/A   Clear
4:00 AM 54.0 °F 15.3 °F 22% 30.11 in 10.0 mi Calm Calm - N/A   Scattered Clouds
4:15 AM 54.0 °F 14.7 °F 21% 30.11 in 10.0 mi Calm Calm - N/A   Scattered Clouds
4:35 AM 54.3 °F 14.0 °F 20% 30.11 in 10.0 mi West 3.5 mph - N/A   Mostly Cloudy
4:55 AM 50.5 °F 18.7 °F 28% 30.11 in 10.0 mi Calm Calm - N/A   Overcast
5:15 AM 50.9 °F 18.5 °F 28% 30.12 in 10.0 mi Calm Calm - N/A   Overcast
5:35 AM 50.9 °F 18.1 °F 27% 30.12 in 10.0 mi Calm Calm - N/A   Mostly Cloudy
5:55 AM 52.3 °F 17.2 °F 25% 30.11 in 10.0 mi Calm Calm - N/A   Overcast
6:15 AM 50.7 °F 19.9 °F 30% 30.11 in 10.0 mi Calm Calm - N/A   Overcast
6:35 AM 52.5 °F 18.7 °F 26% 30.11 in 10.0 mi Calm Calm - N/A   Overcast
6:55 AM 51.6 °F 18.7 °F 27% 30.11 in 10.0 mi Calm Calm - N/A   Scattered Clouds
7:15 AM 56.1 °F 13.6 °F 19% 30.13 in 10.0 mi West 9.2 mph - N/A   Clear
7:35 AM 57.4 °F 12.0 °F 17% 30.14 in 10.0 mi West 12.7 mph 20.7 mph N/A   Scattered Clouds
7:55 AM 55.0 °F 19.0 °F 24% 30.14 in 10.0 mi West 5.8 mph - N/A Rain Light Rain
8:15 AM 58.1 °F 15.8 °F 19% 30.16 in 10.0 mi West 9.2 mph 17.3 mph N/A   Overcast
8:35 AM 57.2 °F 15.8 °F 20% 30.17 in 10.0 mi West 6.9 mph - N/A   Overcast
8:55 AM 57.7 °F 12.9 °F 17% 30.17 in 10.0 mi WNW 10.4 mph 16.1 mph N/A   Overcast
9:15 AM 57.6 °F 12.2 °F 17% 30.17 in 10.0 mi West 11.5 mph 17.3 mph N/A   Overcast
9:35 AM 58.1 °F 12.0 °F 16% 30.17 in 10.0 mi WNW 6.9 mph - N/A   Mostly Cloudy
9:55 AM 57.7 °F 12.2 °F 17% 30.17 in 10.0 mi West 9.2 mph - N/A   Scattered Clouds
10:15 AM 58.8 °F 13.1 °F 17% 30.17 in 10.0 mi West 8.1 mph - N/A   Scattered Clouds
10:35 AM 60.8 °F 12.6 °F 15% 30.17 in 10.0 mi WSW 4.6 mph - N/A   Scattered Clouds
10:55 AM 61.7 °F 16.2 °F 17% 30.16 in 10.0 mi West 8.1 mph 16.1 mph N/A   Clear
11:15 AM 62.8 °F 21.7 °F 21% 30.15 in 10.0 mi West 8.1 mph - N/A   Clear
11:35 AM 63.9 °F 22.8 °F 21% 30.14 in 10.0 mi WNW 9.2 mph - N/A   Scattered Clouds
11:55 AM 64.8 °F 23.0 °F 20% 30.13 in 10.0 mi WNW 16.1 mph 21.9 mph N/A   Clear
12:15 PM 66.6 °F 22.5 °F 19% 30.14 in 10.0 mi WSW 11.5 mph 19.6 mph N/A   Scattered Clouds
12:35 PM 66.9 °F 22.8 °F 19% 30.13 in 10.0 mi West 16.1 mph 19.6 mph N/A   Scattered Clouds
12:55 PM 67.1 °F 25.2 °F 21% 30.13 in 10.0 mi West 17.3 mph 20.7 mph N/A   Clear
1:15 PM 67.5 °F 28.0 °F 23% 30.13 in 10.0 mi West 12.7 mph 21.9 mph N/A   Scattered Clouds
1:35 PM 67.8 °F 30.4 °F 25% 30.13 in 10.0 mi WSW 11.5 mph 16.1 mph N/A   Scattered Clouds
1:55 PM 67.8 °F 28.6 °F 23% 30.13 in 10.0 mi West 11.5 mph 25.3 mph N/A   Scattered Clouds
2:15 PM 68.0 °F 29.5 °F 24% 30.12 in 10.0 mi WNW 10.4 mph 24.2 mph N/A   Clear
2:35 PM 69.1 °F 30.4 °F 24% 30.12 in 10.0 mi WNW 17.3 mph 23.0 mph N/A   Clear
2:55 PM 69.3 °F 30.2 °F 23% 30.12 in 10.0 mi West 15.0 mph 20.7 mph N/A   Clear
3:15 PM 69.6 °F 30.2 °F 23% 30.11 in 10.0 mi West 13.8 mph 19.6 mph N/A   Clear
3:35 PM 69.1 °F 30.6 °F 24% 30.10 in 10.0 mi WSW 8.1 mph 19.6 mph N/A   Clear
3:55 PM 70.2 °F 28.8 °F 21% 30.09 in 10.0 mi West 16.1 mph 23.0 mph N/A   Clear
4:15 PM 70.7 °F 26.6 °F 19% 30.09 in 10.0 mi WSW 6.9 mph - N/A   Clear
4:35 PM 71.2 °F 24.8 °F 18% 30.08 in 10.0 mi WSW 11.5 mph 16.1 mph N/A   Clear
4:55 PM 71.1 °F 24.8 °F 18% 30.08 in 10.0 mi WSW 5.8 mph - N/A   Clear
5:15 PM 71.4 °F 26.6 °F 19% 30.08 in 10.0 mi West 13.8 mph 18.4 mph N/A   Clear
5:35 PM 71.2 °F 24.6 °F 17% 30.08 in 10.0 mi West 10.4 mph - N/A   Clear
5:55 PM 70.9 °F 24.4 °F 18% 30.08 in 10.0 mi WSW 9.2 mph - N/A   Clear
6:15 PM 70.3 °F 25.3 °F 19% 30.09 in 10.0 mi West 8.1 mph 21.9 mph N/A   Clear
6:35 PM 70.2 °F 24.8 °F 18% 30.10 in 10.0 mi West 8.1 mph 17.3 mph N/A   Clear
6:55 PM 69.6 °F 22.5 °F 17% 30.10 in 10.0 mi WSW 9.2 mph - N/A   Clear
7:15 PM 68.9 °F 24.3 °F 19% 30.11 in 10.0 mi WSW 5.8 mph - N/A   Clear
7:35 PM 67.5 °F 26.4 °F 21% 30.11 in 10.0 mi West 4.6 mph - N/A   Clear
7:55 PM 66.2 °F 27.1 °F 23% 30.12 in 10.0 mi WSW 4.6 mph - N/A   Clear
8:15 PM 65.3 °F 27.3 °F 24% 30.12 in 10.0 mi WSW 4.6 mph - N/A   Clear
8:35 PM 64.8 °F 27.5 °F 25% 30.12 in 10.0 mi West 6.9 mph - N/A   Clear
8:55 PM 64.8 °F 28.2 °F 25% 30.13 in 10.0 mi West 6.9 mph - N/A   Clear
9:15 PM 64.4 °F 28.4 °F 26% 30.13 in 10.0 mi West 6.9 mph - N/A   Clear
9:35 PM 63.5 °F 28.8 °F 27% 30.13 in 10.0 mi West 6.9 mph - N/A   Clear
9:55 PM 63.7 °F 29.8 °F 28% 30.13 in 10.0 mi West 8.1 mph - N/A   Clear
10:15 PM 57.2 °F 30.4 °F 36% 30.13 in 10.0 mi Calm Calm - N/A   Clear
10:35 PM 56.5 °F 30.6 °F 37% 30.14 in 10.0 mi Calm Calm - N/A   Clear
10:55 PM 59.0 °F 29.8 °F 33% 30.14 in 10.0 mi Calm Calm - N/A   Clear
11:15 PM 59.5 °F 29.8 °F 32% 30.14 in 10.0 mi Calm Calm - N/A   Scattered Clouds
11:35 PM 61.2 °F 29.8 °F 31% 30.14 in 10.0 mi Calm Calm - N/A   Scattered Clouds
11:55 PM 60.8 °F 30.4 °F 32% 30.14 in 10.0 mi WSW 3.5 mph - N/A   Scattered Clouds